Regional Weather Roundup
Issued by NWS

Home | Current Version | Previous Version | Graphics & Text | Print | Product List | Glossary On
Versions: 1 2 3 4 5 6 7 8 9 10 11 12 13 14 15 16 17 18 19 20 21 22 23 24 25 26 27 28 29 30 31 32 33 34 35 36 37 38 39 40 41 42 43 44 45 46 47 48 49 50
903
ASUS45 KBOU 291507
RWRCO

WEATHER ROUNDUP FOR COLORADO
NATIONAL WEATHER SERVICE DENVER/BOULDER CO
900 AM MDT MON AUG 29 2016

NOTE: "FAIR" INDICATES FEW OR NO CLOUDS BELOW 12000 FEET WITH NO
SIGNIFICANT WEATHER AND/OR OBSTRUCTIONS TO VISIBILITY.

COZ001>005-013-030-031-291600-
...NORTHWEST COLORADO...

CITY           SKY/WX    TMP DP  RH WIND       PRES   REMARKS
CRAIG          FAIR      57  41  55 CALM      30.38S
HAYDEN         FAIR      54  36  50 E13       30.39S
MEEKER         FAIR      55  41  59 CALM      30.38F
MOUNT WERNER   NOT AVBL
STEAMBOAT SPGS FAIR      46  38  72 CALM      30.42S
WALDEN         FAIR      41  36  81 CALM      30.52S
$$

COZ006>008-011-291600-
...WEST CENTRAL VALLEYS...

CITY           SKY/WX    TMP DP  RH WIND       PRES   REMARKS
GRAND JUNCTION FAIR      67  47  48 S6        30.28S
MONTROSE       FAIR      56  44  64 SE6       30.37R
EAGLE          SUNNY     48  46  93 CALM      30.46R
RIFLE          FAIR      54  49  83 CALM      30.35S
DELTA          FAIR      62  46  56 E6        30.34R
NUCLA          FAIR     N/A N/A N/A SE7       30.39R
$$

COZ017>023-064>068-291600-
...SOUTHWEST COLORADO...

CITY           SKY/WX    TMP DP  RH WIND       PRES   REMARKS
DURANGO        FAIR      54  42  64 W8        30.36S
CORTEZ         FAIR      59  47  64 CALM      30.34R
PAGOSA SPRINGS FAIR      55  45  69 E6        30.43S
TELLURIDE      FAIR      52  43  72 CALM      30.51S
WOLF CREEK PAS FAIR      43  36  75 CALM      30.66S
$$

COZ009-010-012-014-032>034-037-058>063-291600-
...CENTRAL COLORADO...

CITY           SKY/WX    TMP DP  RH WIND       PRES   REMARKS
ASPEN          PTSUNNY   52  41  66 CALM      30.45S
BUENA VISTA    DRIZZLE   52  44  76 CALM      30.49R
COPPER MTN     CLOUDY    46  32  57 NE9G20    30.68S
BERTHOUD PASS  CLOUDY    37  27  65 E15G26    30.74S
COTTONWOOD PAS DRIZZLE   46  43  87 SE12      30.57R
GUNNISON       FAIR      50  41  71 CALM      30.48S
KREMMLING      FAIR      46  41  81 CALM      30.49F
LEADVILLE      CLOUDY    43  39  86 CALM      30.56R
SALIDA         CLOUDY    55  49  79 W7        30.54S
SUNLIGHT       FAIR      48  39  71 CALM      30.64S
WILKERSON PASS CLOUDY    45  37  76 E8        30.67R
$$

COZ069>075-291600-
...SAN LUIS VALLEY/SANGRE DE CRISTO MOUNTAINS...

CITY           SKY/WX    TMP DP  RH WIND       PRES   REMARKS
ALAMOSA        FAIR      56  48  74 E9        30.44S
LA VETA PASS   PTSUNNY   45  41  87 W5        30.56S
SAGUACHE       FAIR      54  45  71 S8        30.46F
$$

COZ035-036-038>040-291600-
...NORTHERN COLORADO FRONT RANGE...

CITY           SKY/WX    TMP DP  RH WIND       PRES   REMARKS
DENVER INTL AP PTSUNNY   71  44  37 CALM      30.29R
DMNS CITY PARK   N/A     71  46  39 W2        30.30R
AURORA         PTSUNNY   72  45  37 SW6       30.31R
FRONT RANGE AP PTSUNNY   72  46  40 SW3       30.31R
ERIE MUNI ARPT FAIR      66  46  47 NE5       30.29R
BOULDER MUN AP FAIR      63  45  51 CALM      30.30R
CENTENNIAL     PTSUNNY   70  43  37 S3        30.31S
BROOMFIELD     NOT AVBL
FORT COLLINS   FAIR      64  45  48 E5        30.28R
LONGMONT       FAIR      66  48  50 CALM      30.30R
$$

COZ041-046-047-076>085-087-088-291600-
...PIKES PEAK/PALMER DIVIDE AND SOUTHERN FOOTHILLS...

CITY           SKY/WX    TMP DP  RH WIND       PRES   REMARKS
COLO. SPRINGS  FAIR      70  48  45 E6        30.35R
A. F. ACADEMY  CLOUDY    62  50  64 N8        30.35S
SCHRIEVER AFB  NOT AVBL
ELLICOTT       NOT AVBL
FALCON         FAIR      69  40  34 NE6       30.39R
FORT CARSON    PTSUNNY   66  51  57 N7        30.31R
LIMON          FAIR      68  52  56 NE6       30.30R
MONUMENT HILL  FAIR      63  45  51 CALM      30.41R
TRINIDAD       FAIR      61  48  62 W15       30.33S
$$

COZ042>045-048>051-090-091-291600-
...NORTHEAST COLORADO...

CITY           SKY/WX    TMP DP  RH WIND       PRES   REMARKS
GREELEY ARPT   FAIR      66  52  59 SE3       30.28R
AKRON          FAIR      73  48  41 N12       30.27R
BURLINGTON     FAIR      68  54  60 E10       30.26R
WRAY           NOT AVBL
STERLING       FAIR      63  54  72 CALM      30.24R
HOLYOKE        FAIR      70  61  73 SE8       30.25R
FORT MORGAN    FAIR      70  51  51 CALM      30.27S
$$

COZ086-089-092>099-291600-
...SOUTHEAST COLORADO...

CITY           SKY/WX    TMP DP  RH WIND       PRES   REMARKS
PUEBLO         FAIR      68  51  54 NW6       30.27R
LA JUNTA       FAIR      65  51  60 NW10      30.24R
LAMAR          CLOUDY    64  61  90 NE7       30.22R
SPRINGFIELD      N/A     64  53  67 VRB5      30.26R
$$




USA.gov is the U.S. government's official web portal to all federal, state and local government web resources and services.